FW2897 Weather Reports


time (UTC)temp
C
wind
direction
speed
KPH
gust
KPH
rain 1hr
cm
rain 24hr
cm
rain mn
cm
humidity
%
barometer
mb
20260507000711 20 359 0.0 1.6 0.00 0.18 0.18 77 1008.2
20260507000150 20 359 0.0 3.2 0.00 0.18 0.18 76 1008.0
20260506235649 20 239 1.6 9.7 0.00 0.18 0.18 76 1008.1
20260506235150 20 245 1.6 9.7 0.00 0.18 0.18 76 1008.1
20260506234648 20 214 1.6 4.8 0.00 0.18 0.18 76 1008.0
20260506234149 20 314 0.0 4.8 0.00 0.18 0.18 76 1008.1
20260506233900 20 355 0.0 3.2 0.00 0.18 0.18 76 1008.2
20260506233401 20 354 0.0 3.2 0.00 0.18 0.18 75 1008.2
20260506232631 20 118 1.6 3.2 0.00 0.18 0.18 75 1008.1
20260506232104 20 204 1.6 8.0 0.00 0.18 0.18 75 1008.1
20260506231551 20 208 1.6 6.4 0.00 0.18 0.18 75 1007.8
20260506231518 20 192 1.6 3.2 0.00 0.18 0.18 74 1007.9
20260506230514 20 238 1.6 9.7 0.00 0.18 0.18 74 1007.9
20260506230013 20 245 1.6 9.7 0.00 0.18 0.18 74 1007.9
20260506225516 21 256 1.6 8.0 0.00 0.18 0.18 74 1008.1
20260506224955 21 198 3.2 9.7 0.00 0.18 0.18 74 1008.0
20260506224430 21 251 1.6 9.7 0.00 0.18 0.18 74 1008.1
20260506223909 21 190 1.6 9.7 0.00 0.18 0.18 74 1008.0
20260506223414 21 160 1.6 6.4 0.00 0.18 0.18 74 1008.1
20260506223410 21 206 1.6 6.4 0.00 0.18 0.18 74 1008.1
20260506222411 21 193 1.6 8.0 0.00 0.18 0.18 73 1008.0
20260506222112 21 224 1.6 8.0 0.00 0.18 0.18 73 1007.8
20260506221346 21 336 1.6 12.9 0.00 0.18 0.18 73 1007.6
20260506220857 21 212 3.2 12.9 0.00 0.18 0.18 72 1007.6
20260506220323 21 297 3.2 9.7 0.00 0.18 0.18 72 1007.9
20260506215758 21 316 3.2 9.7 0.00 0.18 0.18 71 1007.9
20260506215456 21 247 3.2 12.9 0.00 0.18 0.18 71 1007.9
20260506214703 21 226 3.2 12.9 0.00 0.18 0.18 72 1007.8
20260506214200 21 302 3.2 12.9 0.00 0.18 0.18 72 1007.8
20260506213635 21 188 3.2 16.1 0.00 0.18 0.18 71 1007.8
20260506213344 21 239 3.2 16.1 0.00 0.18 0.18 71 1007.8
20260506212541 21 234 1.6 14.5 0.00 0.18 0.18 70 1007.8
20260506212040 22 316 3.2 8.0 0.00 0.18 0.18 71 1007.7
20260506211742 22 220 3.2 9.7 0.00 0.18 0.18 71 1007.7
20260506211007 22 252 1.6 9.7 0.00 0.18 0.18 71 1007.6
20260506210731 21 252 3.2 12.9 0.00 0.18 0.18 73 1007.7
20260506210003 21 209 3.2 12.9 0.00 0.18 0.18 73 1007.7
20260506205439 21 236 3.2 11.3 0.00 0.18 0.18 73 1007.6
20260506204915 21 258 3.2 9.7 0.00 0.18 0.18 74 1007.6
20260506204415 20 206 3.2 12.9 0.00 0.18 0.18 74 1007.8
20260506203917 20 231 3.2 12.9 0.00 0.18 0.18 74 1007.6
20260506203415 20 250 3.2 14.5 0.00 0.18 0.18 74 1007.6
20260506203125 20 16 4.8 14.5 0.00 0.18 0.18 74 1007.6
20260506202346 20 342 4.8 14.5 0.00 0.18 0.18 74 1007.5
20260506201843 21 154 3.2 14.5 0.00 0.18 0.18 74 1007.4
20260506201544 20 349 3.2 11.3 0.00 0.18 0.18 75 1007.4
20260506200811 20 267 4.8 12.9 0.00 0.18 0.18 76 1007.5
20260506200309 20 101 3.2 12.9 0.00 0.18 0.18 76 1007.4
20260506200019 20 226 3.2 12.9 0.00 0.18 0.18 77 1007.5
20260506195235 19 236 3.2 12.9 0.00 0.18 0.18 78 1007.6
20260506194734 19 347 3.2 12.9 0.00 0.18 0.18 78 1007.8
20260506194206 19 233 3.2 12.9 0.00 0.18 0.18 78 1007.8
20260506193704 18 288 4.8 19.3 0.00 0.18 0.18 78 1007.9
20260506193136 18 354 4.8 16.1 0.00 0.18 0.18 78 1008.0
20260506192635 18 169 3.2 12.9 0.00 0.18 0.18 78 1008.0
20260506192106 18 75 3.2 11.3 0.00 0.18 0.18 78 1008.0
20260506191539 18 200 3.2 11.3 0.00 0.18 0.18 78 1008.2
20260506191034 18 308 3.2 14.5 0.00 0.18 0.18 78 1008.2
20260506190755 18 273 3.2 14.5 0.00 0.18 0.18 78 1008.2
20260506190004 18 173 3.2 12.9 0.00 0.18 0.18 79 1008.2
20260506185502 18 249 3.2 12.9 0.00 0.18 0.18 79 1008.3
20260506185155 18 237 4.8 14.5 0.00 0.18 0.18 79 1008.2
20260506184656 18 99 4.8 14.5 0.00 0.18 0.18 79 1008.2
20260506183908 18 203 4.8 14.5 0.00 0.18 0.18 79 1008.2
20260506183341 18 325 3.2 14.5 0.00 0.18 0.18 80 1008.4
20260506182813 18 232 3.2 22.5 0.00 0.18 0.18 80 1008.4
20260506182532 18 214 3.2 22.5 0.00 0.18 0.18 80 1008.4
20260506182008 18 291 3.2 8.0 0.00 0.18 0.18 81 1008.5
20260506181218 18 176 3.2 17.7 0.00 0.18 0.18 81 1008.6
20260506180705 18 193 4.8 17.7 0.00 0.18 0.18 81 1008.6
20260506180220 17 226 4.8 20.9 0.00 0.18 0.18 82 1008.6
20260506175640 17 340 3.2 20.9 0.00 0.18 0.18 82 1008.7
20260506175137 17 220 3.2 14.5 0.00 0.18 0.18 83 1008.6
20260506174625 17 227 3.2 14.5 0.00 0.18 0.18 83 1008.6
20260506174618 17 136 3.2 20.9 0.00 0.18 0.18 83 1008.7
20260506173600 17 205 4.8 20.9 0.00 0.18 0.18 82 1008.7
20260506173100 17 257 6.4 16.1 0.00 0.18 0.18 82 1008.8
20260506172530 17 232 4.8 16.1 0.00 0.18 0.18 82 1008.7
20260506172028 17 257 4.8 9.7 0.00 0.18 0.18 82 1008.8
20260506171459 17 197 4.8 16.1 0.03 0.18 0.18 82 1008.7
20260506170959 17 182 4.8 17.7 0.03 0.18 0.18 82 1008.8
20260506170431 17 200 4.8 17.7 0.05 0.18 0.18 83 1008.9
20260506165906 17 179 6.4 19.3 0.05 0.18 0.18 83 1009.0
20260506165341 17 229 6.4 19.3 0.05 0.18 0.18 83 1009.1
20260506164839 17 193 6.4 17.7 0.08 0.18 0.18 83 1009.2
20260506164341 17 202 4.8 17.7 0.08 0.18 0.18 83 1009.1
20260506163814 17 157 4.8 17.7 0.10 0.18 0.18 83 1009.2
20260506163314 17 228 6.4 17.7 0.13 0.18 0.18 82 1009.1
20260506162758 17 144 4.8 14.5 0.13 0.18 0.18 82 1009.2
20260506162256 17 194 3.2 14.5 0.13 0.18 0.18 83 1009.3
20260506161755 17 216 3.2 12.9 0.15 0.18 0.18 83 1009.2
20260506161249 17 176 3.2 12.9 0.13 0.15 0.15 83 1009.4
20260506160952 17 149 4.8 12.9 0.13 0.13 0.13 82 1009.5
20260506160236 17 241 3.2 12.9 0.13 0.13 0.13 82 1009.6
20260506155728 17 226 1.6 12.9 0.13 0.13 0.13 82 1009.9
20260506155159 17 266 1.6 12.9 0.13 0.13 0.13 81 1010.0
20260506154637 17 208 1.6 4.8 0.10 0.10 0.10 81 1010.1
20260506154138 17 258 1.6 12.9 0.08 0.08 0.08 80 1010.0
20260506153636 17 210 3.2 12.9 0.08 0.08 0.08 79 1010.0
20260506153138 18 201 3.2 19.3 0.05 0.05 0.05 78 1010.0
20260506152841 18 123 1.6 9.7 0.05 0.05 0.05 79 1010.0
20260506152113 18 233 1.6 11.3 0.05 0.05 0.05 78 1010.0
20260506151555 18 248 3.2 11.3 0.03 0.03 0.03 76 1009.8
20260506151032 18 228 3.2 14.5 0.00 0.00 0.00 74 1009.9
20260506150528 19 250 3.2 14.5 0.00 0.00 0.00 73 1009.8
20260506150030 19 63 3.2 22.5 0.00 0.00 0.00 71 1010.0
20260506145508 19 223 3.2 22.5 0.00 0.00 0.00 70 1009.8
20260506145232 20 100 3.2 14.5 0.00 0.00 0.00 68 1009.8
20260506144732 20 232 4.8 12.9 0.00 0.00 0.00 67 1009.9
20260506144719 20 177 4.8 14.5 0.00 0.00 0.00 67 1009.9
20260506143436 20 198 4.8 12.9 0.00 0.00 0.00 67 1009.9
20260506142915 20 230 4.8 19.3 0.00 0.00 0.00 67 1009.8
20260506142412 20 174 4.8 19.3 0.00 0.00 0.00 67 1010.1
20260506141847 20 248 3.2 24.1 0.00 0.00 0.00 66 1010.1
20260506141321 20 255 4.8 24.1 0.00 0.00 0.00 66 1010.0
20260506140759 20 224 6.4 25.7 0.00 0.00 0.00 65 1010.0
20260506140232 20 213 8.0 24.1 0.00 0.00 0.00 65 1009.9
20260506135701 21 148 6.4 25.7 0.00 0.00 0.00 64 1010.0
20260506135136 21 203 6.4 27.4 0.00 0.00 0.00 64 1009.7
20260506134855 21 296 6.4 27.4 0.00 0.00 0.00 65 1009.8
20260506134109 20 217 6.4 20.9 0.00 0.00 0.00 66 1009.7
20260506133606 20 218 3.2 19.3 0.00 0.00 0.00 66 1009.8
20260506133103 20 109 3.2 19.3 0.00 0.00 0.00 68 1009.8
20260506132534 19 203 4.8 19.3 0.00 0.00 0.00 68 1009.9
20260506132009 19 143 4.8 19.3 0.00 0.00 0.00 68 1009.9
20260506131502 19 349 3.2 16.1 0.00 0.00 0.00 69 1009.9
20260506131442 19 213 3.2 17.7 0.00 0.00 0.00 69 1009.9
20260506130452 19 155 6.4 25.7 0.00 0.00 0.00 69 1010.0
20260506125923 19 200 4.8 25.7 0.00 0.00 0.00 69 1010.0
20260506125422 19 63 3.2 12.9 0.00 0.00 0.00 70 1010.3
20260506124852 19 217 6.4 19.3 0.00 0.00 0.00 70 1010.4
20260506124350 19 188 6.4 19.3 0.00 0.00 0.00 70 1010.3
20260506123850 19 311 4.8 17.7 0.00 0.00 0.00 71 1010.1
20260506123343 19 237 6.4 16.1 0.00 0.00 0.00 71 1010.3
20260506123055 19 205 6.4 19.3 0.00 0.00 0.00 72 1010.3
20260506122333 19 161 4.8 16.1 0.00 0.00 0.00 72 1010.1
20260506121806 18 249 4.8 17.7 0.00 0.00 0.00 73 1010.3
20260506121305 18 184 6.4 16.1 0.00 0.00 0.00 73 1010.1
20260506121025 19 218 6.4 16.1 0.00 0.00 0.00 72 1010.1
20260506120257 19 223 6.4 16.1 0.00 0.00 0.00 72 1010.1
20260506115729 19 193 6.4 16.1 0.00 0.00 0.00 73 1010.1
20260506115227 19 210 4.8 16.1 0.00 0.00 0.00 74 1010.0
20260506114722 18 212 3.2 12.9 0.00 0.00 0.00 75 1010.0
20260506114222 18 229 3.2 12.9 0.00 0.00 0.00 76 1010.0
20260506113708 18 220 3.2 9.7 0.00 0.00 0.00 77 1009.9
20260506113211 18 206 3.2 12.9 0.00 0.00 0.00 77 1010.0
20260506112642 18 184 3.2 12.9 0.00 0.00 0.00 77 1010.0
20260506112141 17 224 3.2 14.5 0.00 0.00 0.00 77 1010.0
20260506111615 17 171 4.8 14.5 0.00 0.00 0.00 78 1010.0
20260506111050 17 194 3.2 11.3 0.00 0.00 0.00 78 1010.0
20260506110520 17 146 3.2 9.7 0.00 0.00 0.00 78 1010.0
20260506110019 17 206 3.2 14.5 0.00 0.00 0.00 78 1009.9
20260506105453 17 247 3.2 14.5 0.00 0.00 0.00 79 1009.9
20260506104941 17 231 3.2 11.3 0.00 0.00 0.00 79 1009.9
20260506104444 17 241 3.2 11.3 0.00 0.00 0.00 79 1009.9
20260506103914 17 241 4.8 14.5 0.00 0.00 0.00 79 1009.9
20260506103415 17 156 4.8 14.5 0.00 0.00 0.00 79 1010.0
20260506102900 17 262 4.8 11.3 0.00 0.00 0.00 80 1010.0
20260506102404 17 161 6.4 11.3 0.00 0.00 0.00 80 1009.9
20260506101834 17 239 4.8 14.5 0.00 0.00 0.00 80 1010.0
20260506101333 17 222 3.2 14.5 0.00 0.00 0.00 80 1010.0
20260506100804 17 259 3.2 11.3 0.00 0.00 0.00 80 1009.9
20260506100304 17 190 3.2 11.3 0.00 0.00 0.00 80 1009.8
20260506095802 17 113 3.2 11.3 0.00 0.00 0.00 80 1009.8
20260506095529 17 224 3.2 12.9 0.00 0.00 0.00 80 1009.9
20260506094727 17 198 3.2 12.9 0.00 0.00 0.00 80 1010.0
20260506094159 17 252 3.2 9.7 0.00 0.00 0.00 80 1010.0
20260506093657 17 223 3.2 11.3 0.00 0.00 0.00 79 1010.0
20260506093128 17 208 3.2 11.3 0.00 0.00 0.00 79 1009.9
20260506092602 17 236 3.2 11.3 0.00 0.00 0.00 79 1010.0
20260506092036 17 238 3.2 11.3 0.00 0.00 0.00 79 1009.9
20260506091535 17 249 3.2 11.3 0.00 0.00 0.00 79 1009.9
20260506091034 17 232 1.6 14.5 0.00 0.00 0.00 79 1009.9
20260506090531 17 209 3.2 14.5 0.00 0.00 0.00 78 1009.9
20260506090030 17 236 3.2 11.3 0.00 0.00 0.00 78 1010.0
20260506085526 17 167 3.2 11.3 0.00 0.00 0.00 78 1010.0
20260506085021 17 214 3.2 11.3 0.00 0.00 0.00 78 1010.0
20260506084459 18 200 3.2 11.3 0.00 0.00 0.00 78 1010.0
20260506084201 18 156 3.2 11.3 0.00 0.00 0.00 77 1009.9
20260506083901 18 199 4.8 11.3 0.00 0.00 0.00 77 1009.9
20260506083117 18 202 4.8 11.3 0.00 0.00 0.00 77 1010.0
20260506082612 18 169 3.2 11.3 0.00 0.00 0.00 77 1010.0
20260506082053 18 192 4.8 14.5 0.00 0.00 0.00 77 1010.1
20260506081545 18 127 4.8 14.5 0.00 0.00 0.00 77 1010.1
20260506081029 18 196 3.2 14.5 0.00 0.00 0.00 77 1010.3
20260506080314 18 221 3.2 9.7 0.00 0.00 0.00 77 1010.1
20260506073158 18 210 3.2 12.9 0.00 0.05 0.00 75 1010.3
20260506072659 18 183 3.2 9.7 0.00 0.05 0.00 74 1010.3
20260506072143 18 207 3.2 14.5 0.00 0.05 0.00 74 1010.3
20260506071845 19 205 3.2 14.5 0.00 0.05 0.00 73 1010.3
20260506071119 19 131 3.2 11.3 0.00 0.05 0.00 73 1010.3
20260506070551 19 168 3.2 12.9 0.00 0.05 0.00 73 1010.3
20260506061926 19 214 3.2 11.3 0.00 0.05 0.00 72 1010.6
20260506061919 19 236 3.2 11.3 0.00 0.05 0.00 72 1010.6
20260506060917 19 184 3.2 14.5 0.00 0.05 0.00 72 1010.6
20260506060350 19 271 3.2 14.5 0.00 0.05 0.00 72 1010.5
20260506051035 19 224 1.6 6.4 0.00 0.05 0.00 72 1011.0
20260506050531 19 203 1.6 4.8 0.00 0.05 0.00 71 1011.1
20260506050259 19 221 0.0 4.8 0.00 0.05 0.00 71 1011.1
20260506044727 19 224 1.6 6.4 0.00 0.05 0.00 71 1011.2
20260506043949 19 229 1.6 6.4 0.00 0.05 0.00 71 1011.3
20260506043445 19 209 3.2 9.7 0.00 0.05 0.00 70 1011.2
20260506042941 19 231 3.2 14.5 0.00 0.05 0.00 70 1011.2
20260506042439 19 223 3.2 14.5 0.00 0.05 0.00 70 1011.2
20260506041938 19 212 1.6 11.3 0.00 0.05 0.00 70 1011.2
20260506041645 19 181 3.2 11.3 0.00 0.05 0.00 70 1011.2
20260506041131 19 185 1.6 9.7 0.00 0.05 0.00 70 1011.2
20260506040341 19 216 1.6 6.4 0.00 0.05 0.00 70 1011.1
20260506035836 19 225 1.6 8.0 0.00 0.05 0.05 70 1011.0
20260506035330 19 166 1.6 9.7 0.00 0.05 0.05 70 1011.0
20260506034829 19 195 1.6 9.7 0.00 0.05 0.05 69 1011.0
20260506034318 19 193 0.0 6.4 0.00 0.05 0.05 69 1011.0
20260506033818 19 192 1.6 6.4 0.00 0.05 0.05 69 1011.0
20260506033252 19 227 1.6 6.4 0.00 0.05 0.05 69 1010.9
20260506032748 19 224 1.6 8.0 0.00 0.05 0.05 68 1010.8
20260506032446 19 188 1.6 8.0 0.00 0.05 0.05 68 1010.8
20260506031654 19 208 1.6 8.0 0.00 0.05 0.05 67 1011.0
20260506031153 20 203 1.6 8.0 0.00 0.05 0.05 67 1011.0
20260506030628 20 214 3.2 9.7 0.00 0.05 0.05 67 1011.1
20260506030331 20 200 1.6 9.7 0.00 0.05 0.05 67 1011.2
20260506025558 20 233 3.2 9.7 0.00 0.05 0.05 66 1011.2
20260506025031 20 218 1.6 9.7 0.00 0.05 0.05 66 1011.2
20260506024507 20 237 0.0 4.8 0.00 0.05 0.05 65 1011.2
20260506023936 20 197 1.6 11.3 0.00 0.05 0.05 65 1011.2
20260506023434 20 191 3.2 11.3 0.00 0.05 0.05 64 1011.2
20260506022908 20 300 3.2 12.9 0.00 0.05 0.05 64 1011.2
20260506022405 20 189 3.2 12.9 0.00 0.05 0.05 63 1011.2
20260506021836 20 153 3.2 11.3 0.00 0.05 0.05 63 1011.1
20260506021336 20 205 3.2 11.3 0.00 0.05 0.05 62 1011.0
20260506020819 21 199 3.2 11.3 0.00 0.05 0.05 62 1011.0
20260506020306 21 113 3.2 11.3 0.00 0.05 0.05 61 1011.0
20260506015737 21 167 3.2 9.7 0.00 0.05 0.05 60 1010.9
20260506015235 21 214 3.2 9.7 0.00 0.05 0.05 60 1010.9
20260506014706 21 240 3.2 14.5 0.00 0.05 0.05 59 1010.8
20260506014430 21 198 3.2 16.1 0.00 0.05 0.05 58 1010.8
20260506013702 21 218 1.6 11.3 0.00 0.05 0.05 57 1010.6
20260506013200 21 224 3.2 8.0 0.00 0.05 0.05 57 1010.6
20260506012635 22 199 3.2 9.7 0.00 0.05 0.05 57 1010.4
20260506012132 22 239 3.2 11.3 0.00 0.05 0.05 56 1010.4
20260506011631 22 229 3.2 11.3 0.00 0.05 0.05 55 1010.4
20260506011333 22 188 3.2 16.1 0.00 0.05 0.05 55 1010.3
20260506010601 22 193 4.8 16.1 0.00 0.05 0.05 54 1010.1
20260506010521 22 230 3.2 14.5 0.00 0.05 0.05 53 1010.1
20260506005729 22 219 4.8 11.3 0.00 0.05 0.05 52 1010.1
20260506005007 22 194 4.8 14.5 0.00 0.05 0.05 51 1010.1
20260506004710 23 151 4.8 14.5 0.00 0.05 0.05 51 1010.0
20260506003941 23 172 4.8 16.1 0.00 0.05 0.05 51 1010.0
20260506003438 23 187 3.2 16.1 0.00 0.05 0.05 50 1010.0
20260506003419 23 236 3.2 9.7 0.00 0.05 0.05 50 1009.9
20260506002413 23 262 4.8 11.3 0.00 0.05 0.05 50 1009.8
20260506001852 23 262 4.8 14.5 0.00 0.05 0.05 49 1009.8
20260506001345 23 188 3.2 12.9 0.00 0.05 0.05 49 1009.8
20260506000842 23 196 4.8 16.1 0.00 0.05 0.05 49 1009.7